Terug naar catalogus

FREGAT DEB

TANK

ActiefLEO
NORAD 41108·DEBRIS·🇷🇺 Russia

Gelanceerd Dec 11, 2015 vanaf Baikonur Cosmodrome

Loading…

Volgende Passages (komende 24 uur)

TLE

VersSource: Space-Track

Epoch: Sep 14, 2026, 15:15 UTC

1 41108U 15074D   26257.63553465  .00048066  66582-5  54767-3 0  9998
2 41108  50.2788 108.8086 1015301 205.7151 148.9739 13.69854314462163

Volg FREGAT DEB in realtime met AllMySat

Download on the App Store